{"data":{"norad_id":64622,"epoch":"2026-09-21T10:44:15.333216Z","epoch_age_seconds":95464,"freshness":"FRESH","line1":"1 64622U 25138B   26264.44739969  .00002255  00000+0  11143-3 0  9996","line2":"2 64622  97.4523 266.1249 0013483 155.6073 204.5802 15.18812401 68475","mean_motion":15.18812401,"eccentricity":0.0013483,"inclination_deg":97.4523,"raan_deg":266.1249,"arg_perigee_deg":155.6073,"mean_anomaly_deg":204.5802,"bstar":0.00011143,"rev_number":6847,"period_min":94.81091931116,"perigee_km":500.14214914739,"apogee_km":518.71515868974,"semimajor_km":6887.5656539186,"source":"CELESTRAK","updated_at":"2026-09-22T09:00:29.888565Z"}}